NOZ6YH EFHK-EVRA

Flight info

Callsign NOZ6YH
Flight time 0h 37m
Altitude 28000
Route KOIVU Y123 LARTI DCT LUTAL
Aircraft B738/M-SDE2E3FGHIRWXY/LB1

Departure

Time 2026-04-26 14:16
Airport Helsinki Vantaa Airport (EFHK)

Arrival

Time 2026-04-26 14:54
Airport Riga International Airport (EVRA)
Time Latitude Longitude Altitude Speed Heading
2026-04-26 14:02 60.31948 24.96934 166 ft 0 kts 242°
2026-04-26 14:07 60.31948 24.96935 167 ft 0 kts 242°
2026-04-26 14:08 60.31953 24.96954 167 ft 2 kts 242°
2026-04-26 14:08 60.31960 24.96983 167 ft 2 kts 242°
2026-04-26 14:08 60.31969 24.97012 166 ft 2 kts 215°
2026-04-26 14:09 60.31984 24.97021 167 ft 2 kts 165°
2026-04-26 14:09 60.31988 24.97019 167 ft 0 kts 152°
2026-04-26 14:12 60.31977 24.97031 166 ft 5 kts 152°
2026-04-26 14:12 60.31934 24.97106 166 ft 10 kts 116°
2026-04-26 14:12 60.31912 24.97250 164 ft 11 kts 136°
2026-04-26 14:12 60.31835 24.97339 162 ft 15 kts 153°
2026-04-26 14:13 60.31563 24.97611 161 ft 27 kts 153°
2026-04-26 14:13 60.31391 24.97788 159 ft 28 kts 153°
2026-04-26 14:13 60.31210 24.97977 159 ft 29 kts 153°
2026-04-26 14:14 60.31036 24.98151 157 ft 27 kts 154°
2026-04-26 14:14 60.30870 24.98298 158 ft 25 kts 156°
2026-04-26 14:14 60.30713 24.98432 157 ft 24 kts 156°
2026-04-26 14:14 60.30658 24.98550 156 ft 8 kts 78°
2026-04-26 14:15 60.30660 24.98574 156 ft 0 kts 79°
2026-04-26 14:15 60.30661 24.98576 156 ft 1 kts 78°
2026-04-26 14:15 60.30667 24.98623 156 ft 7 kts 72°
2026-04-26 14:15 60.30705 24.98733 157 ft 11 kts 29°
2026-04-26 14:16 60.30799 24.98731 157 ft 26 kts 338°
2026-04-26 14:16 60.31189 24.98335 157 ft 97 kts 333°
2026-04-26 14:16 60.31970 24.97549 237 ft 146 kts 334°
2026-04-26 14:16 60.32893 24.96618 1027 ft 147 kts 334°
2026-04-26 14:17 60.33707 24.95480 2091 ft 139 kts 320°
2026-04-26 14:17 60.34392 24.93853 2626 ft 169 kts 312°
2026-04-26 14:17 60.35043 24.91693 2921 ft 195 kts 301°
2026-04-26 14:17 60.35406 24.88861 3273 ft 222 kts 280°
2026-04-26 14:18 60.35144 24.85667 3875 ft 242 kts 255°
2026-04-26 14:18 60.34283 24.82622 4387 ft 260 kts 245°
2026-04-26 14:18 60.33328 24.79423 4935 ft 271 kts 247°
2026-04-26 14:18 60.32397 24.76116 5900 ft 270 kts 249°
2026-04-26 14:19 60.31336 24.72923 6735 ft 285 kts 228°
2026-04-26 14:19 60.29567 24.70963 7605 ft 298 kts 199°
2026-04-26 14:19 60.27499 24.70402 8570 ft 301 kts 186°
2026-04-26 14:19 60.25395 24.70196 9440 ft 305 kts 185°
2026-04-26 14:20 60.23257 24.70035 10183 ft 312 kts 184°
2026-04-26 14:20 60.21012 24.69865 10447 ft 335 kts 184°
2026-04-26 14:20 60.18601 24.69670 10656 ft 358 kts 184°
2026-04-26 14:20 60.16063 24.69453 11161 ft 370 kts 184°
2026-04-26 14:21 60.13475 24.69225 11879 ft 374 kts 184°
2026-04-26 14:21 60.10864 24.68989 12694 ft 377 kts 184°
2026-04-26 14:21 60.08227 24.68746 13394 ft 383 kts 184°
2026-04-26 14:21 60.05562 24.68498 14162 ft 383 kts 184°
2026-04-26 14:22 60.02879 24.68247 14817 ft 388 kts 184°
2026-04-26 14:22 60.00183 24.67994 15668 ft 384 kts 184°
2026-04-26 14:22 59.97531 24.67747 16607 ft 382 kts 184°
2026-04-26 14:22 59.94860 24.67496 17254 ft 386 kts 185°
2026-04-26 14:23 59.92200 24.67247 17903 ft 390 kts 185°
2026-04-26 14:23 59.89483 24.66993 18556 ft 391 kts 185°
2026-04-26 14:23 59.86749 24.66738 19077 ft 396 kts 185°
2026-04-26 14:23 59.83977 24.66333 19485 ft 402 kts 191°
2026-04-26 14:24 59.81231 24.65176 20006 ft 405 kts 196°
2026-04-26 14:24 59.78482 24.63817 20491 ft 409 kts 197°
2026-04-26 14:24 59.75704 24.62436 20967 ft 414 kts 196°
2026-04-26 14:24 59.72886 24.61067 21412 ft 420 kts 196°
2026-04-26 14:25 59.70026 24.59712 21854 ft 425 kts 195°
2026-04-26 14:25 59.67133 24.58359 22318 ft 429 kts 195°
2026-04-26 14:25 59.64200 24.57075 22775 ft 434 kts 194°
2026-04-26 14:25 59.61229 24.55882 23211 ft 438 kts 194°
2026-04-26 14:26 59.58203 24.54709 23367 ft 449 kts 193°
2026-04-26 14:26 59.55099 24.53516 23453 ft 460 kts 193°
2026-04-26 14:26 59.51916 24.52289 23530 ft 470 kts 193°
2026-04-26 14:26 59.48677 24.51034 23628 ft 478 kts 194°
2026-04-26 14:27 59.45388 24.49754 23776 ft 485 kts 194°
2026-04-26 14:27 59.42065 24.48458 23996 ft 489 kts 194°
2026-04-26 14:27 59.38721 24.47152 24273 ft 491 kts 194°
2026-04-26 14:27 59.35357 24.45840 24509 ft 495 kts 194°
2026-04-26 14:28 59.31969 24.44519 24784 ft 497 kts 194°
2026-04-26 14:28 59.28576 24.43199 25112 ft 498 kts 194°
2026-04-26 14:28 59.25188 24.41885 25386 ft 501 kts 194°
2026-04-26 14:28 59.21728 24.40543 25512 ft 507 kts 194°
2026-04-26 14:29 59.18255 24.39198 25651 ft 512 kts 194°
2026-04-26 14:29 59.14753 24.37847 25847 ft 515 kts 194°
2026-04-26 14:29 59.11233 24.36492 26135 ft 515 kts 194°
2026-04-26 14:29 59.07715 24.35143 26468 ft 515 kts 194°
2026-04-26 14:30 59.04279 24.33828 26774 ft 516 kts 194°
2026-04-26 14:30 59.00697 24.32458 27046 ft 518 kts 194°
2026-04-26 14:30 58.97151 24.31105 27321 ft 519 kts 194°
2026-04-26 14:30 58.93623 24.29761 27628 ft 520 kts 194°
2026-04-26 14:31 58.90052 24.28403 27861 ft 521 kts 194°
2026-04-26 14:31 58.86480 24.27047 27831 ft 524 kts 194°
2026-04-26 14:31 58.82956 24.25714 27840 ft 522 kts 194°
2026-04-26 14:31 58.79345 24.24351 27846 ft 522 kts 194°
2026-04-26 14:32 58.75827 24.23025 27846 ft 524 kts 194°
2026-04-26 14:32 58.72233 24.21672 27862 ft 527 kts 194°
2026-04-26 14:32 58.68639 24.20321 27860 ft 530 kts 194°
2026-04-26 14:32 58.65001 24.18957 27855 ft 531 kts 194°
2026-04-26 14:33 58.61375 24.17602 27857 ft 531 kts 194°
2026-04-26 14:33 58.57739 24.16246 27611 ft 534 kts 194°
2026-04-26 14:33 58.54092 24.14890 27165 ft 532 kts 194°
2026-04-26 14:33 58.50473 24.13549 26667 ft 527 kts 194°
2026-04-26 14:34 58.46873 24.12217 26171 ft 527 kts 194°
2026-04-26 14:34 58.43264 24.10882 25670 ft 527 kts 194°
2026-04-26 14:34 58.39661 24.09551 25171 ft 527 kts 194°
2026-04-26 14:34 58.36072 24.08229 24674 ft 522 kts 194°
2026-04-26 14:35 58.32542 24.06935 24177 ft 513 kts 194°
2026-04-26 14:35 58.29061 24.05661 23696 ft 506 kts 194°
2026-04-26 14:35 58.25608 24.04397 23171 ft 504 kts 194°
2026-04-26 14:35 58.22188 24.03146 22602 ft 497 kts 194°
2026-04-26 14:36 58.18863 24.01934 22153 ft 489 kts 194°
2026-04-26 14:36 58.15544 24.00726 21678 ft 483 kts 194°
2026-04-26 14:36 58.12257 23.99530 21219 ft 478 kts 194°
2026-04-26 14:36 58.09006 23.98350 20751 ft 474 kts 194°
2026-04-26 14:37 58.05782 23.97180 20279 ft 470 kts 194°
2026-04-26 14:37 58.02570 23.96018 19823 ft 467 kts 193°
2026-04-26 14:37 58.00459 23.95256 19519 ft 465 kts 193°
2026-04-26 14:37 57.97296 23.94115 19066 ft 461 kts 193°
2026-04-26 14:38 57.94155 23.92985 18618 ft 457 kts 193°
2026-04-26 14:38 57.91064 23.91878 18171 ft 449 kts 193°
2026-04-26 14:38 57.87959 23.91305 17758 ft 448 kts 180°
2026-04-26 14:38 57.84865 23.91700 17456 ft 444 kts 176°
2026-04-26 14:39 57.81784 23.92101 17146 ft 445 kts 178°
2026-04-26 14:39 57.78684 23.92389 16708 ft 445 kts 179°
2026-04-26 14:39 57.75605 23.92622 16230 ft 441 kts 179°
2026-04-26 14:39 57.72552 23.92842 15769 ft 437 kts 179°
2026-04-26 14:40 57.69524 23.93063 15302 ft 434 kts 179°
2026-04-26 14:40 57.66514 23.93291 14855 ft 433 kts 179°
2026-04-26 14:40 57.63521 23.93195 14219 ft 427 kts 187°
2026-04-26 14:40 57.60579 23.92635 13611 ft 422 kts 189°
2026-04-26 14:41 57.57713 23.91999 12906 ft 417 kts 189°
2026-04-26 14:41 57.54805 23.91342 12141 ft 414 kts 189°
2026-04-26 14:41 57.51949 23.90715 11397 ft 412 kts 189°
2026-04-26 14:41 57.49155 23.90126 10873 ft 406 kts 189°
2026-04-26 14:42 57.46364 23.89558 10425 ft 401 kts 188°
2026-04-26 14:42 57.43618 23.89011 10243 ft 397 kts 188°
2026-04-26 14:42 57.40841 23.88462 10081 ft 404 kts 188°
2026-04-26 14:42 57.38029 23.87909 9886 ft 407 kts 188°
2026-04-26 14:43 57.35218 23.87361 9463 ft 404 kts 188°
2026-04-26 14:43 57.32449 23.86825 9073 ft 395 kts 188°
2026-04-26 14:43 57.29751 23.86305 8708 ft 384 kts 188°
2026-04-26 14:43 57.27129 23.85800 8366 ft 374 kts 189°
2026-04-26 14:44 57.24565 23.85305 8005 ft 366 kts 189°
2026-04-26 14:44 57.22051 23.84819 7673 ft 359 kts 189°
2026-04-26 14:44 57.19594 23.84344 7350 ft 352 kts 189°
2026-04-26 14:44 57.17182 23.83878 7014 ft 345 kts 189°
2026-04-26 14:45 57.14832 23.83426 6691 ft 332 kts 189°
2026-04-26 14:45 57.13329 23.83138 6478 ft 323 kts 189°
2026-04-26 14:45 57.10409 23.82579 6078 ft 308 kts 190°
2026-04-26 14:45 57.08313 23.82176 5809 ft 298 kts 190°
2026-04-26 14:46 57.06276 23.81784 5528 ft 292 kts 190°
2026-04-26 14:46 57.04268 23.81396 5323 ft 288 kts 191°
2026-04-26 14:46 57.02292 23.81013 5073 ft 291 kts 191°
2026-04-26 14:46 57.00263 23.80620 4804 ft 294 kts 190°
2026-04-26 14:47 56.98221 23.80228 4519 ft 295 kts 190°
2026-04-26 14:47 56.96184 23.79839 4230 ft 294 kts 190°
2026-04-26 14:47 56.94151 23.79451 3964 ft 293 kts 190°
2026-04-26 14:47 56.92126 23.79065 3678 ft 292 kts 191°
2026-04-26 14:48 56.90108 23.78681 3473 ft 289 kts 191°
2026-04-26 14:48 56.88126 23.78306 3357 ft 283 kts 191°
2026-04-26 14:48 56.86175 23.77937 3263 ft 283 kts 191°
2026-04-26 14:48 56.84198 23.77573 3139 ft 287 kts 187°
2026-04-26 14:49 56.82380 23.78042 2949 ft 296 kts 158°
2026-04-26 14:49 56.80648 23.80012 2885 ft 292 kts 138°
2026-04-26 14:49 56.79129 23.82438 2813 ft 289 kts 136°
2026-04-26 14:49 56.77826 23.85175 2657 ft 283 kts 110°
2026-04-26 14:50 56.77452 23.88491 2624 ft 255 kts 78°
2026-04-26 14:50 56.77980 23.91298 2514 ft 221 kts 46°
2026-04-26 14:50 56.79052 23.93121 2222 ft 202 kts 24°
2026-04-26 14:50 56.80232 23.94280 2050 ft 190 kts 19°
2026-04-26 14:51 56.81404 23.95055 1939 ft 170 kts
2026-04-26 14:51 56.82510 23.95442 1723 ft 155 kts
2026-04-26 14:51 56.83535 23.95658 1513 ft 143 kts 359°
2026-04-26 14:51 56.84523 23.95824 1321 ft 140 kts 359°
2026-04-26 14:52 56.85455 23.95980 1158 ft 126 kts 358°
2026-04-26 14:52 56.86298 23.96119 964 ft 122 kts 358°
2026-04-26 14:52 56.87137 23.96257 786 ft 121 kts 358°
2026-04-26 14:52 56.87981 23.96390 621 ft 122 kts 358°
2026-04-26 14:53 56.88816 23.96533 456 ft 118 kts 359°
2026-04-26 14:53 56.89641 23.96673 274 ft 122 kts 360°
2026-04-26 14:53 56.90495 23.96812 114 ft 122 kts 358°
2026-04-26 14:53 56.91282 23.96960 48 ft 101 kts 356°
2026-04-26 14:54 56.91866 23.97039 45 ft 63 kts
2026-04-26 14:54 56.92191 23.97094 46 ft 40 kts
2026-04-26 14:54 56.92416 23.97202 44 ft 30 kts 29°
2026-04-26 14:54 56.92559 23.97379 42 ft 16 kts 34°
2026-04-26 14:55 56.92608 23.97452 45 ft 0 kts 57°
2026-04-26 14:55 56.92609 23.97460 45 ft 3 kts 70°
2026-04-26 14:56 56.92602 23.97512 45 ft 6 kts 127°
2026-04-26 14:56 56.92537 23.97541 45 ft 15 kts 183°
2026-04-26 14:56 56.92399 23.97517 45 ft 23 kts 187°
2026-04-26 14:56 56.92217 23.97484 45 ft 28 kts 187°
2026-04-26 14:57 56.92023 23.97450 45 ft 22 kts 184°
2026-04-26 14:57 56.91937 23.97439 45 ft 11 kts 191°
2026-04-26 14:57 56.91859 23.97433 45 ft 11 kts 184°
2026-04-26 14:57 56.91785 23.97422 45 ft 11 kts 184°
2026-04-26 14:58 56.91717 23.97450 45 ft 10 kts 134°
2026-04-26 14:58 56.91699 23.97586 45 ft 13 kts 95°
2026-04-26 14:58 56.91742 23.97714 45 ft 14 kts 12°
2026-04-26 14:58 56.91819 23.97711 45 ft 8 kts 316°
2026-04-26 14:59 56.91832 23.97644 45 ft 2 kts 278°
2026-04-26 14:59 56.91833 23.97633 45 ft 0 kts 277°